View from above orbital plane
|
View from above satellite
|
Ground track
|
The orbit data is extracted from the following two-line orbital elements,
1 28646U 05016A 21092.80713575 0.00000000 00000-0 00000-0 0 01
2 28646 57.0133 356.2185 0002090 159.4263 200.5737 14.51861400 02
Epoch (UTC): | 02 April 2021 19:22:16 |
Eccentricity: | 0.0002090 |
inclination: | 57.0133° |
perigee height: | 718 km |
apogee height: | 721 km |
right ascension of ascending node: | 356.2185° |
argument of perigee: | 159.4263° |
revolutions per day: | 14.51861400 |
mean anomaly at epoch: | 200.5737° |
orbit number at epoch: | 0 |
The dashed part of the orbit path shows where the satellite is in the earth's shadow,
|
|